Flag for Japan Weather past 2 weeks in Suzuka, Japan

Now
42 °F

Quite cool.


Feels Like: 40 °F
Forecast: 38 / 44 °F
Wind: 5 mph from Northwest

Location: Tsu

Current Time: Jan 30, 2015 at 2:35:49 PM

Latest Report: Jan 30, 2015 at 2:00 PM


Visibility: N/A

Pressure: 29.93 "Hg

Humidity: 92%

Dew point: 40 °F

Location of SuzukaLocation

Historic Weather in Suzuka — Graph

°F

Suzuka temperature yesterday

Maximum temperature yesterday: 44 °F (at 3:00 PM)
Minimum temperature yesterday: 33 °F (at 5:00 AM)
Average temperature yesterday: 39 °F

Past Weeks' High & Low Weather Summary

 TemperatureHumidityPressure
High55 °F (Jan 27, 9:00 AM)96% (Jan 22, 2:00 PM)30.40 "Hg (Jan 22, 2:00 PM)
Low33 °F (Jan 29, 5:00 AM)36% (Jan 24, 2:00 PM)29.61 "Hg (Jan 23, 1:00 AM)
Average43 °F65%30.10 "Hg
* Reported Jan 15 1:00 PM — Jan 30 1:00 PM, Suzuka, Weather by CustomWeather, © 2014

Note: Actual official high and low records may vary slightly from our data, if they occured in-between our weather recording intervals... More about our weather records

Advertising

Suzuka weather history for previous 24 hours

 ConditionsComfort  
Time TempWeatherWind HumidityBarometerVisibility
1:00 PM
Jan 30
40 °FQuite cool.6 mph92%29.94 "HgN/A
11:00 AM39 °FChilly.6 mph91%30.03 "HgN/A
10:00 AM38 °FChilly.7 mph91%30.06 "HgN/A
9:00 AM38 °FLight rain. Overcast.3 mph90%30.09 "Hg3 mi
8:00 AM37 °FChilly.3 mph89%30.12 "HgN/A
7:00 AM37 °FChilly.3 mph89%30.14 "HgN/A
5:00 AM38 °FChilly.3 mph79%30.16 "HgN/A
4:00 AM39 °FChilly.3 mph68%30.17 "HgN/A
3:00 AM39 °FChilly.5 mph68%30.19 "HgN/A
2:00 AM39 °FChilly.3 mph68%30.22 "HgN/A
1:00 AM39 °FChilly.5 mph72%30.24 "HgN/A
12:00 AM39 °FChilly.3 mph64%30.25 "HgN/A
11:00 PM
Jan 29
40 °FChilly.3 mph63%30.27 "HgN/A
10:00 PM40 °FChilly.5 mph62%30.29 "HgN/A
9:00 PM40 °FOvercast.5 mph57%30.29 "Hg16 mi
8:00 PM41 °FQuite cool.5 mph55%30.31 "HgN/A
7:00 PM41 °FQuite cool.3 mph55%30.31 "HgN/A
6:00 PM43 °FQuite cool.1 mph46%30.33 "HgN/A
5:00 PM43 °FQuite cool.No wind47%30.30 "HgN/A
4:00 PM43 °FQuite cool.5 mph44%30.27 "HgN/A
3:00 PM44 °FOvercast.6 mph44%30.26 "Hg25 mi
2:00 PM43 °FQuite cool.10 mph42%30.29 "HgN/A
Weather by CustomWeather, © 2014

See weather overviewHow to use our weather pages